EW1682 Weather Reports


time (UTC)temp
C
wind
direction
speed
KPH
gust
KPH
rain 1hr
cm
rain 24hr
cm
rain mn
cm
humidity
%
barometer
mb
20260504213715 23 191 4.8 12.9 0.00 0.00 0.00 38 1021.3
20260504212719 23 207 4.8 12.9 0.00 0.00 0.00 35 1021.3
20260504210712 23 218 3.2 11.3 0.00 0.00 0.00 29 1021.3
20260504210213 23 220 3.2 8.0 0.00 0.00 0.00 29 1021.3
20260504203716 23 218 3.2 9.7 0.00 0.00 0.00 29 1021.3
20260504202221 23 222 4.8 9.7 0.00 0.00 0.00 28 1021.3
20260504192218 24 244 3.2 8.0 0.00 0.00 0.00 27 1021.3
20260504190207 24 204 3.2 8.0 0.00 0.00 0.00 27 1021.3
20260504180209 23 238 3.2 9.7 0.00 0.00 0.00 29 1021.3
20260504175707 23 229 3.2 9.7 0.00 0.00 0.00 29 1021.3
20260504173706 23 239 4.8 8.0 0.00 0.00 0.00 29 1021.3
20260504150209 19 206 3.2 8.0 0.00 0.00 0.00 39 1021.3
20260504140206 18 225 8.0 16.1 0.00 0.00 0.00 40 1021.3
20260504120206 10 200 3.2 8.0 0.00 0.00 0.00 72 1021.3
20260504100217 7 202 3.2 4.8 0.00 0.00 0.00 70 1021.3
20260504080718 7 226 0.0 0.0 0.00 0.00 0.00 64 1021.3
20260504080208 7 226 0.0 0.0 0.00 0.00 0.00 64 1021.3
20260504070210 7 227 0.0 0.0 0.00 0.00 0.00 61 1021.3
20260504060207 7 219 3.2 3.2 0.00 0.00 0.00 58 1021.3
20260504050207 8 185 0.0 1.6 0.00 0.00 0.00 57 1021.3
20260504045221 7 182 0.0 0.0 0.00 0.00 0.00 57 1021.3
20260504040206 8 223 0.0 0.0 0.00 0.00 0.00 55 1021.3
20260504033716 8 223 0.0 0.0 0.00 0.00 0.00 54 1021.3
20260504032208 8 245 0.0 0.0 0.00 0.00 0.00 54 1021.3
20260504030208 8 242 0.0 3.2 0.00 0.00 0.00 55 1021.3
20260504020722 8 246 0.0 0.0 0.00 0.03 0.00 55 1021.3
20260504020208 8 246 0.0 0.0 0.00 0.03 0.00 55 1021.3
20260504015209 8 246 0.0 0.0 0.00 0.03 0.00 55 1021.3
20260504011717 10 246 0.0 0.0 0.00 0.03 0.00 51 1021.3
20260504010206 10 246 0.0 0.0 0.00 0.03 0.00 46 1021.3
20260504005709 11 246 0.0 0.0 0.00 0.03 0.00 45 1021.3
20260504004208 11 246 0.0 0.0 0.00 0.03 0.00 44 1021.3
20260504001719 13 246 0.0 0.0 0.00 0.03 0.00 38 1021.3
20260504001207 13 246 0.0 0.0 0.00 0.03 0.00 37 1021.3
20260504000211 13 246 0.0 0.0 0.00 0.03 0.00 37 1021.3
20260503234706 13 246 0.0 1.6 0.00 0.03 0.00 34 1021.3
20260503232218 14 238 1.6 4.8 0.00 0.03 0.00 31 1021.3
20260503230206 15 197 3.2 4.8 0.00 0.03 0.00 31 1021.3
20260503225718 15 228 3.2 4.8 0.00 0.03 0.00 31 1021.3
20260503225207 15 277 3.2 4.8 0.00 0.03 0.00 30 1021.3
20260503224709 15 270 3.2 4.8 0.00 0.03 0.00 30 1021.3
20260503224206 15 268 3.2 14.5 0.00 0.03 0.00 31 1021.3
20260503222723 15 265 8.0 14.5 0.00 0.03 0.00 30 1021.3
20260503220206 15 248 6.4 12.9 0.00 0.03 0.00 29 1021.3
20260503215207 15 240 6.4 12.9 0.00 0.03 0.00 30 1021.3